| time (UTC) | temp F | wind direction | speed MPH | gust MPH | rain 1hr in | rain 24hr in | rain mn in | humidity % | barometer mb |
| 20260507191529 | 69 | 327 | 2.0 | 8.0 | 0.00 | 0.00 | 0.00 | 48 | 1019.7 |
| 20260507190034 | 69 | 328 | 2.0 | 7.0 | 0.00 | 0.00 | 0.00 | 50 | 1019.9 |
| 20260507184535 | 66 | 347 | 3.0 | 7.0 | 0.00 | 0.00 | 0.00 | 52 | 1020.3 |
| 20260507181532 | 65 | 345 | 2.0 | 8.0 | 0.00 | 0.00 | 0.00 | 52 | 1020.4 |
| 20260507180034 | 65 | 30 | 3.0 | 7.0 | 0.00 | 0.00 | 0.00 | 51 | 1020.5 |
| 20260507173148 | 65 | 44 | 1.0 | 6.0 | 0.00 | 0.00 | 0.00 | 55 | 1020.9 |
| 20260507171534 | 64 | 41 | 2.0 | 6.0 | 0.00 | 0.00 | 0.00 | 55 | 1021.0 |
| 20260507170032 | 63 | 54 | 0.0 | 6.0 | 0.00 | 0.00 | 0.00 | 59 | 1021.0 |
| 20260507164534 | 61 | 341 | 1.0 | 6.0 | 0.00 | 0.00 | 0.00 | 62 | 1021.2 |
| 20260507163031 | 61 | 328 | 2.0 | 6.0 | 0.00 | 0.00 | 0.00 | 64 | 1021.2 |
| 20260507161643 | 60 | 334 | 2.0 | 7.0 | 0.00 | 0.00 | 0.00 | 66 | 1021.3 |
| 20260507160032 | 59 | 335 | 2.0 | 6.0 | 0.00 | 0.00 | 0.00 | 67 | 1021.5 |
| 20260507154531 | 60 | 337 | 2.0 | 7.0 | 0.00 | 0.00 | 0.00 | 67 | 1021.6 |
| 20260507153107 | 59 | 338 | 1.0 | 4.0 | 0.00 | 0.00 | 0.00 | 69 | 1021.6 |
| 20260507151535 | 58 | 320 | 1.0 | 5.0 | 0.00 | 0.00 | 0.00 | 72 | 1021.7 |
| 20260507150039 | 57 | 315 | 1.0 | 4.0 | 0.00 | 0.00 | 0.00 | 76 | 1021.8 |
| 20260507143037 | 53 | 279 | 1.0 | 4.0 | 0.00 | 0.00 | 0.00 | 87 | 1021.8 |
| 20260507141530 | 50 | 179 | 0.0 | 3.0 | 0.00 | 0.00 | 0.00 | 89 | 1021.6 |
| 20260507134535 | 47 | 154 | 0.0 | 3.0 | 0.00 | 0.00 | 0.00 | 90 | 1021.2 |
| 20260507133029 | 46 | 193 | 0.0 | 2.0 | 0.00 | 0.00 | 0.00 | 89 | 1021.1 |
| 20260507130030 | 48 | 202 | 0.0 | 2.0 | 0.00 | 0.00 | 0.00 | 87 | 1021.0 |
| 20260507124534 | 48 | 202 | 1.0 | 3.0 | 0.00 | 0.00 | 0.00 | 85 | 1021.0 |
| 20260507121532 | 50 | 197 | 0.0 | 3.0 | 0.00 | 0.00 | 0.00 | 83 | 1021.0 |
| 20260507120031 | 51 | 290 | 0.0 | 3.0 | 0.00 | 0.00 | 0.00 | 84 | 1021.0 |
| 20260507114535 | 50 | 310 | 0.0 | 3.0 | 0.00 | 0.00 | 0.00 | 85 | 1020.9 |
| 20260507113034 | 50 | 337 | 0.0 | 0.0 | 0.00 | 0.00 | 0.00 | 86 | 1020.8 |
| 20260507111535 | 50 | 326 | 0.0 | 4.0 | 0.00 | 0.00 | 0.00 | 86 | 1020.7 |
| 20260507110035 | 50 | 257 | 0.0 | 2.0 | 0.00 | 0.00 | 0.00 | 85 | 1020.6 |
| 20260507104535 | 50 | 304 | 0.0 | 2.0 | 0.00 | 0.00 | 0.00 | 84 | 1020.6 |
| 20260507103031 | 51 | 251 | 0.0 | 3.0 | 0.00 | 0.00 | 0.00 | 82 | 1020.7 |
| 20260507101531 | 52 | 245 | 0.0 | 4.0 | 0.00 | 0.00 | 0.00 | 81 | 1020.7 |
| 20260507100039 | 53 | 281 | 1.0 | 4.0 | 0.00 | 0.00 | 0.00 | 81 | 1020.8 |
| 20260507094530 | 53 | 279 | 0.0 | 5.0 | 0.00 | 0.00 | 0.00 | 81 | 1020.8 |
| 20260507093147 | 53 | 280 | 0.0 | 6.0 | 0.00 | 0.00 | 0.00 | 80 | 1020.9 |
| 20260507091532 | 54 | 288 | 1.0 | 5.0 | 0.00 | 0.00 | 0.00 | 80 | 1020.9 |
| 20260507090108 | 54 | 272 | 0.0 | 5.0 | 0.00 | 0.00 | 0.00 | 79 | 1021.0 |
| 20260507084535 | 54 | 302 | 1.0 | 7.0 | 0.00 | 0.00 | 0.00 | 78 | 1021.0 |
| 20260507083035 | 55 | 257 | 0.0 | 4.0 | 0.00 | 0.00 | 0.00 | 78 | 1021.0 |
| 20260507074529 | 55 | 236 | 3.0 | 7.0 | 0.00 | 0.00 | 0.00 | 80 | 1021.1 |
| 20260507073031 | 55 | 254 | 0.0 | 5.0 | 0.00 | 0.00 | 0.00 | 81 | 1021.1 |
| 20260507071536 | 54 | 244 | 0.0 | 3.0 | 0.00 | 0.00 | 0.00 | 82 | 1021.1 |
| 20260507070029 | 53 | 252 | 0.0 | 3.0 | 0.00 | 0.00 | 0.00 | 83 | 1021.1 |
| 20260507063136 | 54 | 239 | 1.0 | 3.0 | 0.00 | 0.00 | 0.00 | 81 | 1021.2 |
| 20260507061534 | 54 | 209 | 1.0 | 4.0 | 0.00 | 0.00 | 0.00 | 80 | 1021.2 |
| 20260507060032 | 56 | 206 | 1.0 | 4.0 | 0.00 | 0.00 | 0.00 | 77 | 1021.3 |
| 20260507053031 | 58 | 244 | 0.0 | 4.0 | 0.00 | 0.00 | 0.00 | 78 | 1021.6 |
| 20260507051610 | 57 | 271 | 1.0 | 6.0 | 0.00 | 0.00 | 0.00 | 78 | 1021.7 |
| 20260507050030 | 56 | 271 | 0.0 | 2.0 | 0.00 | 0.00 | 0.00 | 76 | 1021.7 |
| 20260507043035 | 57 | 270 | 0.0 | 2.0 | 0.00 | 0.00 | 0.00 | 70 | 1021.5 |
| 20260507041532 | 60 | 270 | 0.0 | 0.0 | 0.00 | 0.00 | 0.00 | 65 | 1021.3 |
| 20260507040035 | 61 | 252 | 1.0 | 7.0 | 0.00 | 0.00 | 0.00 | 63 | 1021.1 |
| 20260507034531 | 62 | 245 | 1.0 | 7.0 | 0.00 | 0.00 | 0.00 | 61 | 1021.0 |
| 20260507033031 | 63 | 206 | 2.0 | 6.0 | 0.00 | 0.00 | 0.00 | 58 | 1020.8 |
| 20260507031535 | 65 | 195 | 0.0 | 6.0 | 0.00 | 0.00 | 0.00 | 54 | 1020.7 |
| 20260507030038 | 66 | 198 | 4.0 | 10.0 | 0.00 | 0.00 | 0.00 | 52 | 1020.6 |
| 20260507023143 | 68 | 205 | 8.0 | 13.0 | 0.00 | 0.00 | 0.00 | 48 | 1020.4 |
| 20260507021532 | 69 | 214 | 6.0 | 11.0 | 0.00 | 0.00 | 0.00 | 46 | 1020.3 |
| 20260507020036 | 70 | 233 | 6.0 | 12.0 | 0.00 | 0.00 | 0.00 | 46 | 1020.2 |
| 20260507014534 | 71 | 252 | 5.0 | 13.0 | 0.00 | 0.00 | 0.00 | 46 | 1020.1 |
| 20260507011530 | 72 | 281 | 2.0 | 7.0 | 0.00 | 0.00 | 0.00 | 47 | 1020.0 |
| 20260507010031 | 71 | 304 | 1.0 | 6.0 | 0.00 | 0.00 | 0.00 | 49 | 1020.0 |
| 20260507004531 | 70 | 316 | 2.0 | 7.0 | 0.00 | 0.00 | 0.00 | 48 | 1020.0 |
| 20260507003033 | 71 | 306 | 2.0 | 7.0 | 0.00 | 0.00 | 0.00 | 48 | 1019.8 |
| 20260507001609 | 70 | 317 | 2.0 | 10.0 | 0.00 | 0.00 | 0.00 | 50 | 1019.8 |
| 20260506234542 | 69 | 310 | 1.0 | 5.0 | 0.00 | 0.00 | 0.00 | 52 | 1019.7 |
| 20260506233037 | 69 | 320 | 2.0 | 9.0 | 0.00 | 0.00 | 0.00 | 52 | 1019.7 |
| 20260506231536 | 69 | 307 | 2.0 | 7.0 | 0.00 | 0.00 | 0.00 | 52 | 1019.7 |
| 20260506230039 | 69 | 323 | 2.0 | 9.0 | 0.00 | 0.00 | 0.00 | 53 | 1019.7 |
| 20260506224530 | 70 | 340 | 3.0 | 8.0 | 0.00 | 0.00 | 0.00 | 51 | 1019.7 |
| 20260506223037 | 73 | 334 | 3.0 | 10.0 | 0.00 | 0.00 | 0.00 | 49 | 1019.6 |
| 20260506221534 | 74 | 334 | 3.0 | 12.0 | 0.00 | 0.00 | 0.00 | 48 | 1019.6 |
| 20260506220036 | 74 | 328 | 3.0 | 12.0 | 0.00 | 0.00 | 0.00 | 49 | 1019.7 |
| 20260506213030 | 73 | 331 | 2.0 | 10.0 | 0.00 | 0.00 | 0.00 | 50 | 1019.7 |
| 20260506211535 | 74 | 331 | 3.0 | 12.0 | 0.00 | 0.00 | 0.00 | 50 | 1019.6 |
| 20260506210034 | 75 | 338 | 2.0 | 7.0 | 0.00 | 0.00 | 0.00 | 49 | 1019.6 |
| 20260506204539 | 73 | 326 | 3.0 | 9.0 | 0.00 | 0.00 | 0.00 | 51 | 1019.9 |
| 20260506203142 | 72 | 318 | 2.0 | 10.0 | 0.00 | 0.00 | 0.00 | 53 | 1020.0 |
| 20260506200028 | 72 | 330 | 1.0 | 5.0 | 0.00 | 0.00 | 0.00 | 54 | 1020.0 |
| 20260506194537 | 72 | 332 | 3.0 | 9.0 | 0.00 | 0.00 | 0.00 | 55 | 1020.1 |